Change the Weather History Date:

Wednesday, August 20, 2014

  Actual Average Record
Temperature  
Mean Temperature 66 °F 66 °F  
Max Temperature 79 °F 82 °F 99 °F (1931)
Min Temperature 53 °F 50 °F 39 °F (1916)
Degree Days  
Heating Degree Days 0 3  
Month to date heating degree days 0 31  
Since 1 June heating degree days 228 272  
Since 1 July heating degree days 5 81  
Cooling Degree Days 1 3  
Month to date cooling degree days 138 87  
Year to date cooling degree days 317 250  
Since 1 June cooling degree days 317 243  
Growing Degree Days 16 (Base 50)    
Moisture  
Dew Point 50 °F    
Average Humidity 57    
Maximum Humidity 83    
Minimum Humidity 30    
Precipitation  
Precipitation 0.04 in 0.06 in 1.58 in (1974)
Month to date precipitation 0.57 0.96  
Year to date precipitation 12.64 10.72  
Snow  
Snow 0.00 in 0.00 in 0.00 in (2002)
Month to date snowfall 0.0 0.1  
Since 1 June snowfall 0.0 0.4  
Since 1 July snowfall 0.0 0.1  
Snow Depth 0.00 in    
Sea Level Pressure  
Sea Level Pressure 29.79 in    
Wind  
Wind Speed 6 mph (West)    
Max Wind Speed 24 mph    
Max Gust Speed 29 mph    
Visibility 10 miles    
Events Rain , Thunderstorm    
T = Trace of Precipitation, MM = Missing Value Source: NWS Daily Summary

Daily Weather History Graph

Daily Weather History Graph

Search for Another Location

Airport or City:

Trip Planner

Search our weather history database for the weather conditions in past years. The results will help you decide how hot, cold, wet, or windy it might be!

Date:

Astronomy

Aug. 20, 2014 Rise Set
Actual Time 6:28 AM MDT 8:28 PM MDT
Civil Twilight 5:55 AM MDT 9:01 PM MDT
Nautical Twilight 5:14 AM MDT 9:42 PM MDT
Astronomical Twilight 4:28 AM MDT 10:27 PM MDT
Moon 2:03 AM MDT (8/20) 5:23 PM MDT (8/20)
Length of Visible Light 15h 06m
Length of Day
14h 00m
Waning Crescent, 20% of the Moon is Illuminated
Aug 20
Waning Crescent
Aug 25
New
Sep 2
First Quarter
Sep 8
Full
Sep 15
Last Quarter

Hourly Weather History & Observations

Time (MDT) Temp. Dew Point Humidity Pressure Visibility Wind Dir Wind Speed Gust Speed Precip Events Conditions
12:53 AM 62.1 °F 54.0 °F 75% 29.68 in 10.0 mi East 5.8 mph - 0.05 in   Mostly Cloudy
1:53 AM 62.1 °F 52.0 °F 70% 29.68 in 10.0 mi ESE 5.8 mph - 0.00 in   Overcast
2:53 AM 61.0 °F 52.0 °F 72% 29.67 in 10.0 mi Calm Calm - 0.00 in   Clear
3:53 AM 57.9 °F 52.0 °F 81% 29.68 in 10.0 mi Calm Calm - N/A   Clear
4:53 AM 57.0 °F 48.9 °F 74% 29.69 in 10.0 mi Calm Calm - N/A   Clear
5:53 AM 57.0 °F 50.0 °F 77% 29.70 in 10.0 mi Calm Calm - N/A   Partly Cloudy
6:53 AM 55.0 °F 50.0 °F 83% 29.74 in 10.0 mi SSW 5.8 mph - N/A   Overcast
7:53 AM 60.1 °F 53.1 °F 78% 29.73 in 10.0 mi SSE 6.9 mph - 0.00 in   Partly Cloudy
8:53 AM 64.9 °F 52.0 °F 63% 29.75 in 10.0 mi SW 3.5 mph - N/A   Partly Cloudy
9:53 AM 69.1 °F 50.0 °F 51% 29.76 in 10.0 mi SSW 6.9 mph - N/A   Clear
10:53 AM 73.0 °F 46.9 °F 39% 29.76 in 10.0 mi West 6.9 mph - N/A   Partly Cloudy
11:53 AM 75.9 °F 44.1 °F 32% 29.75 in 10.0 mi Variable 3.5 mph - N/A   Clear
12:53 PM 78.1 °F 44.1 °F 30% 29.73 in 10.0 mi NNW 10.4 mph - N/A   Mostly Cloudy
1:53 PM 73.0 °F 45.0 °F 37% 29.75 in 10.0 mi WNW 13.8 mph 20.7 mph 0.00 in Rain Light Rain
2:02 PM 69.8 °F 48.2 °F 46% 29.84 in 9.0 mi NW 18.4 mph 26.5 mph 0.00 in Rain , Thunderstorm Light Thunderstorms and Rain
2:30 PM 64.4 °F 53.6 °F 68% 29.86 in 10.0 mi South 5.8 mph - 0.02 in Rain Light Rain
2:53 PM 66.9 °F 50.0 °F 54% 29.77 in 10.0 mi Calm Calm - 0.02 in Rain Light Rain
3:53 PM 72.0 °F 50.0 °F 46% 29.76 in 10.0 mi West 8.1 mph - 0.00 in   Partly Cloudy
4:53 PM 73.9 °F 46.9 °F 38% 29.76 in 10.0 mi Calm Calm - N/A   Mostly Cloudy
5:53 PM 73.0 °F 46.9 °F 39% 29.77 in 10.0 mi SSW 3.5 mph - N/A   Partly Cloudy
6:53 PM 70.0 °F 48.9 °F 47% 29.79 in 10.0 mi South 10.4 mph - N/A   Partly Cloudy
7:53 PM 68.0 °F 48.0 °F 49% 29.81 in 10.0 mi West 8.1 mph - 0.00 in Thunderstorm Thunderstorm
8:11 PM 64.4 °F 53.6 °F 68% 29.88 in 10.0 mi North 15.0 mph 24.2 mph N/A   Mostly Cloudy
8:41 PM 62.6 °F 53.6 °F 72% 29.90 in 10.0 mi North 17.3 mph - N/A Thunderstorm Scattered Clouds
8:53 PM 60.1 °F 52.0 °F 75% 29.85 in 10.0 mi North 18.4 mph 26.5 mph N/A   Mostly Cloudy
9:53 PM 57.0 °F 52.0 °F 83% 29.90 in 10.0 mi NNE 15.0 mph - N/A   Mostly Cloudy
10:53 PM 57.0 °F 52.0 °F 83% 29.92 in 10.0 mi NNE 4.6 mph - 0.01 in   Overcast
11:42 PM 55.4 °F 53.6 °F 94% 30.00 in 10.0 mi West 6.9 mph - 0.01 in Rain Light Rain
11:53 PM 55.0 °F 53.1 °F 93% 29.94 in 10.0 mi West 6.9 mph - 0.01 in Rain Light Rain